Showing default

COSMOS 2504, 40555

Orbit data source: Space-Track

COSMOS 2504, 40555 is a payload satellite owned by TsNIIKhM (CIS) in LEO that was launched on Tue, 31 Mar 2015 UTC via an ROKOT launch vehicle from the Plesetsk Missile And Space Complex (PKMTR). Payload-class satellites include a variety of spacecraft equipped with specific instruments for various scientific and technological missions. These include communications satellites like Starlink; space stations such as the ISS; scientific satellites like the Hubble; Earth observation satellites from companies like Planet Labs, Umbra, and HawkEye 360; GPS; miniature CubeSats for education and research; and military/defense satellites.

Loading next visibility...
Identifier
40555, 2015-020D
Orbit
LEO
Country
Flag of CISCIS
Related business
Manufacturer
TsNIIKhM
Mission
Operational Defense Technology
Bus & Motor
NIVELIR, Unknown motor
Mass
~100 kg wet, ~100 kg dry
Launch date (UTC)
2015-03-31 (11 years ago)
Launch vehicle
ROKOT
Launch site
Plesetsk Missile And Space Complex (PKMTR)
Object type
Payload
Rocket body
Debris
Shape & HBR
Hex Cyl + 1 Ant, 0.5 m
Radar Cross Section
0.352 m², Medium (>0.1 m² and < 1m²)

Expand to show TLE details & history
Last TLE update: 7 hours ago

TLE from 7 hours ago
0 COSMOS 2504
1 40555U 15020D   26174.94829756  .00000186  00000-0  65630-4 0  9996
2 40555  82.5178 226.0702 0606458 255.9211  97.3844 13.61387167551116
Epoch: 2026-06-23T22:45Z
TLE epoch observation values (Epoch: 2026-06-23T22:45:32.909Z)
Latitude
-0.00001°
Longitude
-27.42946°
Altitude
1,117.72 km
Speed
7.252 km/s
True Right ascension
15h 04m 16s
True Declination
0° 00' 00"
Sunlit
Object was in full shadow at epoch
Visualization orbit readout
Latitude
Unknown
Longitude
Unknown
Altitude
Unknown
Speed
Unknown
Apparent Right ascension
Unknown
Apparent Declination
Unknown
Sunlit
N/A
Visualization observer readout
Local Sidereal Time
16:54:27
Azimuth
Unknown
Elevation
Unknown
Doppler factor
Unknown
Orbital elements
Apogee altitude
1,476.964 km
Perigee altitude
578.683 km
Semi-major axis
7,405.961 km
Eccentricity
0.06065
Inclination
82.5178°
RAAN
226.0702°
Arg. of periapsis
255.9211°
True anomaly
104.19369°
Mean anomaly
97.3844°
Eccentric anomaly
100.79763°
Mean motion
3.40542 °/min
Orbital period
105.71 mins
BSTAR
0.00006563
Loading maneuver chart data...
Computing Atmospheric mass density...
Loading historical data...
Loading historical data...
Loading historical data...
Loading historical data...
Loading historical data...
Loading historical data...
Loading historical data...

Documentation

Showing up to 5 results
|